Regional Weather Roundup
Issued by NWS

Home | Current Version | Previous Version | Text Only | Print | Product List | Glossary Off
Versions: 1 2 3 4 5 6 7 8 9 10 11 12 13 14 15 16 17 18 19 20 21 22 23 24 25 26 27 28 29 30 31 32 33 34 35 36 37 38 39 40 41 42 43 44 45 46 47 48 49 50

000
ASUS45 KCYS 020510
RWRWY

WYOMING REGIONAL WEATHER ROUNDUP
NATIONAL WEATHER SERVICE CHEYENNE WY
1100 PM MDT MON SEP 01 2014

NOTE:  "FAIR" INDICATES FEW OR NO CLOUDS BELOW 12,000 FEET
WITH NO SIGNIFICANT WEATHER AND/OR OBSTRUCTIONS TO VISIBILITY.

WYZ001-020600-
YELLOWSTONE NATIONAL PARK

CITY           SKY/WX    TMP DP  RH WIND       PRES   REMARKS
LK YELLOWSTONE   N/A     36  34  92 NW3       30.23F
W YELLOWSTONE  NOT AVBL

$$
WYZ002>013-054>058-071-098>099-020600-
NORTHERN WYOMING

CITY           SKY/WX    TMP DP  RH WIND       PRES   REMARKS
JACKSON        CLEAR     50  37  62 CALM      30.17S
CODY             N/A    N/A N/A N/A MISG        N/A
GREYBULL       CLEAR     57  45  64 SE3       29.98F
WORLAND        CLEAR     53  43  68 CALM      30.00R
SHERIDAN       CLEAR     46  42  86 S6        30.00F
BUFFALO        CLEAR     49  41  74 W6        30.06S
GILLETTE       CLEAR     49  43  80 S6        30.03F
HULETT         FAIR      46  39  76 MISG      30.03
NEWCASTLE      FAIR      45  39  81 CALM      30.06

$$
WYZ014>020-022>026-101>103-020600-
CENTRAL WYOMING

CITY           SKY/WX    TMP DP  RH WIND       PRES   REMARKS
BIG PINEY      CLEAR     44  33  65 NW5       30.22S
PINEDALE       CLEAR     41  34  75 NW3       30.23S
DUBOIS         FAIR      45  30  57 NW10      30.18S
LANDER         CLEAR     61  30  31 CALM      30.08R
RIVERTON       CLEAR     58  28  32 NW15      30.09R
CASPER         CLEAR     46  41  82 CALM      30.08S
DOUGLAS        CLEAR     48  45  89 SE9       30.10S

$$
WYZ021-027>030-104>119-020600-
SOUTHERN WYOMING

CITY           SKY/WX    TMP DP  RH WIND       PRES   REMARKS
EVANSTON       CLEAR     54  30  40 W6        30.24S
KEMMERER       CLEAR     52  32  46 W5        30.24F
FORT BRIDGER   FAIR      53  34  47 W9        30.25S
ROCK SPRINGS   CLEAR     53  30  41 W7        30.21R
DIXON          FAIR      51  38  61 E5        30.23R
RAWLINS        CLEAR     57  27  31 W12       30.18S
SARATOGA       FAIR      50  34  53 SW10      30.21S
LARAMIE        CLEAR     46  34  62 S8        30.21S
CHEYENNE       CLEAR     51  43  74 NW3       30.18R
TORRINGTON     CLEAR     49  45  86 NE3       30.08S
PINE BLUFFS    FAIR      48  45  87 CALM      30.15R

$$


USA.gov is the U.S. government's official web portal to all federal, state and local government web resources and services.